FW6692 Weather Reports


time (UTC)temp
C
wind
direction
speed
KPH
gust
KPH
rain 1hr
cm
rain 24hr
cm
rain mn
cm
humidity
%
barometer
mb
20260506150047 12 360 14.5 22.5 0.00 0.00 0.00 94 1017.7
20260506144549 12 19 14.5 29.0 0.00 0.00 0.00 94 1017.8
20260506143059 12 348 16.1 24.1 0.00 0.00 0.00 94 1017.5
20260506141550 13 360 19.3 32.2 0.00 0.00 0.00 91 1017.3
20260506140054 14 334 12.9 25.7 0.00 0.00 0.00 89 1017.1
20260506134553 15 321 14.5 27.4 0.00 0.00 0.00 89 1016.6
20260506133050 15 13 16.1 27.4 0.00 0.00 0.00 88 1015.3
20260506131554 15 26 9.7 29.0 0.00 0.00 0.00 88 1015.0
20260506130051 15 18 17.7 30.6 0.00 0.00 0.00 87 1015.0
20260506124549 16 5 14.5 30.6 0.00 0.00 0.00 86 1014.6
20260506123049 16 360 14.5 22.5 0.00 0.00 0.00 86 1014.2
20260506121547 16 5 12.9 19.3 0.00 0.00 0.00 85 1014.2
20260506120057 16 28 14.5 22.5 0.00 0.00 0.00 86 1013.9
20260506114558 17 5 11.3 19.3 0.00 0.00 0.00 85 1013.7
20260506113053 17 355 4.8 16.1 0.00 0.00 0.00 86 1014.0
20260506111548 17 42 6.4 17.7 0.00 0.00 0.00 86 1013.8
20260506110055 18 24 8.0 16.1 0.00 0.00 0.00 86 1013.8
20260506104550 18 12 11.3 24.1 0.00 0.00 0.00 86 1013.6
20260506103049 18 13 9.7 17.7 0.00 0.00 0.00 86 1013.3
20260506101551 19 22 6.4 14.5 0.00 0.00 0.00 88 1013.4
20260506100048 19 34 8.0 16.1 0.00 0.00 0.00 90 1013.4
20260506094610 20 15 9.7 17.7 0.00 0.00 0.00 90 1013.0
20260506093056 21 38 8.0 14.5 0.00 0.00 0.00 93 1012.7
20260506091556 22 62 4.8 8.0 0.00 0.00 0.00 92 1012.6
20260506090051 22 126 1.6 4.8 0.00 0.00 0.00 94 1012.8
20260506084554 22 126 3.2 6.4 0.00 0.00 0.00 94 1012.5
20260506083102 23 126 6.4 12.9 0.00 0.00 0.00 94 1012.4
20260506081551 23 132 6.4 9.7 0.00 0.00 0.00 94 1012.3
20260506073053 23 150 3.2 9.7 0.00 0.00 0.00 93 1012.6
20260506071549 23 199 1.6 4.8 0.00 0.00 0.00 92 1012.8
20260506061552 23 59 4.8 9.7 0.00 0.00 0.00 92 1012.5
20260506044550 23 173 3.2 14.5 0.00 0.00 0.00 90 1011.7
20260506043042 23 179 8.0 16.1 0.00 0.00 0.00 90 1011.6
20260506041550 23 156 8.0 16.1 0.00 0.00 0.00 90 1011.6
20260506040059 22 146 6.4 11.3 0.00 0.00 0.00 90 1011.7
20260506034558 22 148 6.4 9.7 0.00 0.00 0.00 90 1011.7
20260506033047 22 147 6.4 14.5 0.00 0.00 0.00 89 1011.3
20260506031557 22 158 11.3 16.1 0.00 0.00 0.00 89 1011.0
20260506030048 23 141 8.0 12.9 0.00 0.00 0.00 89 1011.1
20260506024543 23 126 6.4 11.3 0.00 0.00 0.00 87 1011.1
20260506023047 23 146 4.8 8.0 0.00 0.00 0.00 86 1010.8
20260506021543 24 153 6.4 9.7 0.00 0.00 0.00 85 1010.2
20260506020049 25 157 4.8 14.5 0.00 0.00 0.00 83 1010.2
20260506014549 25 166 6.4 14.5 0.00 0.00 0.00 82 1009.8
20260506013055 25 164 4.8 12.9 0.00 0.00 0.00 80 1009.6
20260506011556 26 159 6.4 12.9 0.00 0.00 0.00 79 1009.6
20260506010056 26 157 6.4 11.3 0.00 0.00 0.00 77 1009.3
20260506004553 27 177 6.4 16.1 0.00 0.00 0.00 75 1009.3
20260506003049 27 189 4.8 11.3 0.00 0.00 0.00 73 1009.2
20260506001549 28 159 3.2 17.7 0.00 0.00 0.00 71 1009.2
20260506000050 28 161 9.7 17.7 0.00 0.00 0.00 70 1009.3
20260505234559 28 176 6.4 16.1 0.00 0.00 0.00 68 1009.2
20260505233103 28 198 6.4 14.5 0.00 0.00 0.00 70 1009.3
20260505231555 30 184 3.2 14.5 0.00 0.00 0.00 66 1009.3
20260505230047 30 0 1.6 12.9 0.00 0.00 0.00 66 1009.2
20260505224549 30 178 3.2 12.9 0.00 0.00 0.00 64 1009.1
20260505223051 30 178 3.2 16.1 0.00 0.00 0.00 67 1009.3
20260505221549 29 163 8.0 19.3 0.00 0.00 0.00 67 1009.1
20260505220049 30 143 9.7 20.9 0.00 0.00 0.00 65 1009.3
20260505214550 30 192 4.8 16.1 0.00 0.00 0.00 66 1009.1
20260505213043 30 198 6.4 16.1 0.00 0.00 0.00 64 1009.3
20260505211547 30 205 6.4 14.5 0.00 0.00 0.00 68 1009.6
20260505210050 30 168 6.4 19.3 0.00 0.00 0.00 67 1009.8
20260505204549 30 192 9.7 17.7 0.00 0.00 0.00 67 1009.8
20260505203049 31 151 6.4 14.5 0.00 0.00 0.00 66 1009.9
20260505201556 30 146 3.2 16.1 0.00 0.00 0.00 65 1010.0
20260505200049 30 167 4.8 16.1 0.00 0.00 0.00 68 1010.0
20260505194605 30 155 4.8 16.1 0.00 0.00 0.00 66 1010.2
20260505193048 30 186 1.6 12.9 0.00 0.00 0.00 70 1010.2
20260505191544 29 0 3.2 20.9 0.00 0.00 0.00 70 1010.3
20260505190047 30 159 4.8 16.1 0.00 0.00 0.00 67 1010.5
20260505184552 29 222 4.8 16.1 0.00 0.00 0.00 71 1010.9
20260505183050 30 207 4.8 20.9 0.00 0.00 0.00 69 1011.1
20260505181552 29 221 6.4 17.7 0.00 0.00 0.00 70 1011.4
20260505180050 28 193 4.8 25.7 0.00 0.00 0.00 71 1011.5
20260505174556 28 198 6.4 22.5 0.00 0.00 0.00 72 1011.7
20260505173051 27 157 4.8 24.1 0.00 0.00 0.00 74 1011.7
20260505171553 27 256 6.4 25.7 0.00 0.00 0.00 74 1011.7
20260505170049 27 215 4.8 19.3 0.00 0.00 0.00 75 1012.1
20260505164614 26 241 6.4 29.0 0.00 0.00 0.00 77 1011.8
20260505163053 26 223 8.0 22.5 0.00 0.00 0.00 77 1012.0
20260505161550 26 251 6.4 22.5 0.00 0.00 0.00 76 1011.9
20260505153049 24 227 9.7 22.5 0.00 0.00 0.00 82 1012.1
20260505151550 23 228 11.3 29.0 0.00 0.00 0.00 82 1012.0